Wind_Speed
29 28 27 28 28 28 28 27 25 23 21 20 19 17 16 16 16 17 16 16 17 16 15 14 14 14 14 14 15 15 15 15 15 14 14 15 15 16 16 16 16 15 16 16
30 29 28 29 29 28 28 28 28 26 24 22 21 20 19 18 18 19 19 18 17 17 17 16 16 17 17 17 17 18 17 17 18 17 18 18 18 18 18 18 17 16 16 17
28 28 29 30 29 29 29 28 27 26 26 24 23 22 21 20 21 21 21 19 19 19 19 19 19 19 19 20 20 21 20 20 21 20 21 21 21 21 20 20 20 18 18 18
28 28 29 28 28 29 29 28 28 28 26 25 24 23 22 21 21 21 21 21 21 21 21 21 22 22 22 23 23 23 24 24 24 24 24 24 24 24 23 23 22 20 20 21
28 28 28 28 28 28 29 29 28 28 27 26 24 24 24 23 23 24 24 24 23 23 23 23 24 24 25 26 26 27 26 26 26 26 27 28 27 26 25 26 25 25 24 24
28 27 27 28 28 27 28 30 29 29 29 28 27 26 26 25 25 26 26 26 26 26 26 26 26 26 27 27 27 28 28 28 29 29 30 30 29 29 28 28 28 29 29 28
28 27 28 30 27 26 27 28 27 28 29 29 29 29 28 27 28 28 29 29 29 29 28 28 28 28 29 29 29 29 30 30 31 31 31 31 30 30 30 30 30 31 31 30
27 27 28 28 27 27 28 27 27 27 28 29 29 29 29 30 30 31 31 32 32 31 31 31 31 31 30 31 31 31 32 32 32 32 33 32 32 32 32 33 33 33 33 33
29 29 28 27 26 27 27 28 28 28 29 29 30 31 31 32 33 33 33 34 34 34 34 34 33 33 33 33 33 33 33 33 33 33 34 35 34 34 34 34 35 35 35 34
30 30 29 28 28 29 28 28 29 29 30 30 32 32 33 34 33 34 35 35 35 35 35 35 35 35 35 35 35 35 34 34 35 35 35 36 35 35 35 36 35 35 35 35
30 29 29 29 29 29 29 29 29 29 30 31 31 32 33 33 33 34 35 36 35 36 36 36 36 36 36 37 37 37 37 37 37 36 36 37 37 37 37 37 37 36 35 36
30 30 29 28 27 28 29 29 29 29 29 30 30 32 33 33 33 34 35 36 36 36 37 37 37 37 37 38 38 38 38 38 38 37 37 38 38 38 38 38 38 37 37 37
29 29 28 28 28 29 29 29 30 31 31 30 31 31 32 33 33 33 34 35 36 36 37 36 37 37 38 39 39 39 38 38 38 38 38 38 38 38 37 37 37 37 39 39
28 29 29 29 28 28 28 29 29 30 30 29 30 31 32 33 33 34 34 35 35 34 34 35 36 37 37 38 38 38 38 38 38 38 38 38 37 38 38 37 38 38 38 39
27 28 28 28 28 28 28 29 29 29 29 29 30 31 31 32 33 34 34 35 35 35 35 36 36 37 37 38 38 38 38 37 37 37 37 37 38 38 39 39 39 39 38 38
26 26 27 27 27 28 28 28 29 29 28 29 30 31 32 32 32 33 33 33 34 35 36 36 36 37 38 38 38 38 37 37 37 37 37 38 38 38 39 39 39 39 38 37
25 25 25 25 26 26 28 28 29 29 29 29 30 30 31 32 32 32 33 34 35 36 36 36 36 36 36 36 37 37 37 36 36 36 36 36 36 36 36 36 37 36 36 36
24 24 24 25 25 27 27 28 28 29 29 29 29 30 31 32 32 32 33 34 34 34 33 34 35 35 35 35 36 36 36 36 36 35 35 35 36 36 36 36 36 36 35 35
23 24 24 24 24 25 26 27 27 28 28 29 29 29 30 30 31 32 33 34 34 34 33 33 33 34 34 34 34 34 34 34 34 34 33 33 34 34 34 33 33 32 32 33
22 23 23 24 24 25 25 25 26 27 28 28 28 28 28 29 30 31 32 32 32 32 32 32 32 32 32 32 32 33 32 32 31 31 31 30 31 31 31 31 31 31 32 32
20 21 21 22 22 23 24 25 25 26 26 26 26 26 26 26 27 28 28 28 29 30 30 30 30 30 31 31 31 30 30 29 29 29 29 29 29 30 30 30 31 32 32 32
18 18 19 20 20 21 21 22 22 22 22 22 22 23 24 24 24 25 26 26 27 27 27 27 27 28 28 28 28 27 27 26 27 28 29 29 29 29 30 31 31 32 32 31
17 17 17 17 18 19 20 20 20 21 21 21 21 22 22 22 23 23 23 24 24 24 24 25 25 25 25 24 25 25 25 26 27 27 28 28 29 29 30 31 31 31 31 31
15 15 16 16 17 18 18 18 19 19 19 20 21 21 21 21 21 21 21 20 20 21 21 21 22 23 23 24 24 25 25 26 26 27 28 28 29 29 29 30 30 30 30 31
15 15 15 16 17 17 17 17 17 18 19 19 19 20 19 20 20 20 19 19 18 19 20 20 20 21 22 23 23 23 24 24 24 25 26 27 28 29 29 29 29 30 30 31
14 14 14 15 15 16 16 17 17 17 17 18 18 18 19 19 19 19 19 18 18 19 19 19 20 20 20 21 22 22 23 23 23 24 25 26 27 28 28 29 29 30 30 31
14 14 14 14 15 15 15 16 16 16 16 16 16 17 18 18 17 18 18 18 18 19 19 20 20 19 20 21 21 21 22 23 24 25 25 26 26 27 28 28 28 29 29 30
Wind_Direction
231 234 238 241 242 241 240 239 241 248 253 256 260 261 259 259 260 262 263 265 263 261 267 268 267 266 269 272 275 277 280 284 284 285 286 288 290 291 291 293 285 284 290 293
233 234 237 239 239 239 240 241 242 246 250 253 255 258 258 257 257 259 260 263 263 262 266 266 266 266 268 270 273 275 277 280 282 281 281 283 285 290 291 291 288 285 292 296
234 234 237 239 237 237 239 240 242 245 248 251 253 256 257 255 255 258 257 259 263 266 267 265 266 266 267 271 272 274 275 276 276 277 280 282 283 286 289 289 290 288 291 293
234 235 238 239 239 239 241 242 242 244 246 247 249 253 254 254 254 256 258 263 263 264 265 265 266 267 267 270 271 273 274 274 275 277 278 280 282 282 282 283 285 286 288 289
232 236 240 241 242 241 242 243 244 246 246 246 247 251 253 256 258 258 259 262 264 266 266 266 268 269 271 271 272 272 272 273 274 275 277 278 279 278 277 279 280 282 284 287
233 235 241 246 245 245 247 249 247 247 247 248 248 250 252 254 256 257 259 262 264 266 267 267 267 269 272 273 274 274 274 274 273 274 275 277 276 276 277 279 280 281 283 285
235 237 241 244 246 246 247 249 247 247 247 247 248 250 252 254 257 258 259 262 264 265 267 269 269 269 270 272 274 276 276 275 274 272 272 273 274 276 278 279 280 281 282 283
234 236 241 244 244 245 247 247 246 246 246 247 247 250 253 256 259 259 259 262 265 265 267 268 269 269 270 271 273 274 275 275 274 273 272 271 273 274 275 276 278 279 281 282
234 237 241 244 245 247 248 246 246 248 248 248 249 251 253 256 258 259 261 263 265 266 267 268 268 268 270 272 273 274 274 274 274 273 272 270 271 273 274 275 276 277 279 281
236 237 239 243 245 248 248 248 249 250 251 251 251 252 253 256 258 261 264 265 265 266 267 269 269 270 271 271 273 274 273 273 273 272 273 271 272 273 273 274 275 276 277 279
237 238 240 243 246 247 247 249 252 253 254 253 254 255 256 258 260 262 263 265 266 267 267 268 269 270 271 272 273 274 273 272 272 272 272 271 270 271 272 272 274 275 276 277
240 241 243 244 246 247 248 249 252 254 256 258 259 258 258 258 260 261 263 264 265 266 267 268 269 270 272 273 273 274 273 273 273 272 271 270 269 270 270 271 273 273 273 275
242 244 245 246 247 248 248 249 252 254 255 257 258 260 260 260 261 263 265 267 267 267 267 267 268 270 271 272 273 272 273 274 274 272 271 271 269 269 270 271 272 272 273 274
242 244 245 245 246 248 248 250 253 255 257 261 261 262 261 262 263 265 267 268 268 268 268 269 269 270 272 273 273 273 273 274 274 272 271 271 271 271 270 271 271 272 273 275
244 245 247 247 248 248 249 252 254 256 259 261 262 263 264 264 265 266 267 267 267 268 270 271 271 272 273 273 273 273 273 273 272 272 271 271 272 272 271 271 272 273 274 275
243 244 245 247 250 249 250 253 256 258 261 263 264 265 265 266 267 267 267 268 268 268 270 271 272 273 273 274 274 274 273 273 272 273 273 272 272 273 272 272 272 273 273 274
242 244 244 247 250 252 253 256 258 260 263 265 266 267 267 267 267 268 269 270 270 271 271 272 273 274 274 274 274 274 274 273 273 272 273 273 273 273 274 274 274 275 274 275
243 246 247 249 252 253 256 258 260 262 263 265 266 267 268 268 269 270 272 273 273 272 273 273 273 275 276 276 275 274 273 273 271 271 270 269 269 271 273 273 275 276 276 276
246 248 250 253 256 258 259 261 262 264 264 265 267 268 270 271 272 272 273 273 273 274 275 275 276 276 277 276 275 275 274 273 271 271 272 271 270 272 273 274 276 278 279 279
247 250 254 258 261 262 262 263 264 267 269 270 270 271 272 273 274 274 274 273 275 276 275 275 276 276 276 274 274 275 275 273 272 271 271 271 272 273 274 276 278 279 280 280
250 253 257 261 262 263 267 269 271 272 272 271 271 271 274 276 276 277 277 276 276 275 274 274 274 274 275 274 273 272 273 271 270 269 270 272 273 274 275 276 277 279 279 280
253 257 260 262 264 268 271 273 275 275 275 274 272 274 277 279 278 277 277 277 276 274 272 273 273 274 274 272 271 271 272 272 271 270 271 272 273 275 276 277 277 278 279 280
254 259 264 267 270 275 277 278 278 277 278 280 281 282 284 285 284 279 277 276 274 272 271 272 273 274 275 276 275 274 273 274 274 273 272 273 274 276 277 277 277 277 278 280
255 262 268 272 275 277 278 278 279 279 280 280 281 282 285 288 290 289 285 282 280 280 280 279 279 278 279 279 278 277 276 276 276 276 276 277 278 278 277 277 278 279 279 280
260 266 271 276 278 279 280 280 281 281 282 283 283 284 285 288 290 291 291 291 290 288 288 287 285 284 284 283 282 280 278 277 277 277 277 277 278 279 279 279 279 280 280 282
264 268 274 278 280 280 279 280 281 281 284 286 287 288 289 289 290 292 293 294 293 291 290 290 290 288 286 286 286 284 282 280 279 279 279 280 280 280 281 283 283 283 284 284
266 271 278 283 284 283 283 283 284 284 287 290 292 293 292 291 292 292 292 292 291 291 291 292 291 290 290 289 287 286 285 284 283 283 283 283 283 283 284 284 284 285 286 286
Height
5861 5865 5868 5870 5872 5875 5878 5881 5884 5886 5887 5888 5889 5890 5890 5891 5891 5891 5892 5892 5892 5892 5892 5892 5892 5891 5891 5891 5891 5891 5890 5889 5888 5888 5887 5886 5884 5883 5882 5881 5880 5880 5879 5878
5854 5858 5860 5863 5865 5868 5871 5874 5877 5879 5881 5882 5884 5884 5885 5886 5886 5887 5887 5887 5887 5887 5887 5887 5887 5887 5887 5887 5887 5886 5886 5885 5884 5883 5883 5881 5880 5879 5878 5877 5875 5875 5874 5873
5848 5851 5854 5856 5859 5862 5864 5867 5870 5872 5875 5876 5878 5879 5880 5880 5881 5881 5882 5882 5882 5882 5883 5882 5882 5882 5882 5882 5882 5881 5881 5880 5879 5878 5878 5877 5876 5874 5873 5872 5871 5870 5869 5867
5842 5845 5847 5852 5853 5855 5858 5860 5863 5865 5868 5870 5872 5873 5874 5874 5875 5876 5876 5877 5877 5877 5877 5877 5877 5877 5876 5876 5876 5875 5875 5874 5873 5873 5872 5871 5870 5869 5867 5866 5865 5864 5863 5862
5836 5838 5841 5843 5846 5848 5851 5853 5856 5858 5861 5863 5864 5866 5867 5868 5869 5870 5870 5871 5871 5871 5871 5871 5870 5870 5870 5869 5869 5868 5867 5867 5866 5866 5865 5864 5864 5862 5861 5860 5859 5858 5857 5856
5829 5832 5835 5837 5839 5841 5845 5846 5849 5851 5853 5855 5858 5859 5861 5861 5862 5863 5863 5864 5864 5864 5864 5864 5863 5863 5862 5862 5861 5860 5860 5859 5858 5858 5857 5856 5856 5855 5854 5853 5852 5851 5850 5849
5821 5825 5828 5828 5831 5835 5838 5840 5842 5843 5846 5848 5849 5851 5853 5854 5855 5856 5856 5857 5857 5856 5856 5856 5856 5855 5855 5854 5853 5853 5852 5851 5850 5849 5848 5848 5847 5847 5846 5845 5844 5843 5842 5841
5814 5818 5821 5821 5824 5827 5829 5831 5834 5835 5838 5840 5841 5843 5845 5846 5847 5847 5848 5848 5848 5848 5848 5848 5847 5847 5846 5846 5845 5844 5843 5842 5841 5840 5839 5839 5838 5838 5837 5837 5836 5834 5833 5832
5807 5811 5812 5814 5817 5819 5821 5823 5825 5828 5830 5831 5833 5834 5836 5837 5838 5838 5839 5839 5839 5838 5838 5838 5837 5837 5837 5837 5836 5835 5833 5832 5831 5831 5830 5829 5829 5828 5827 5827 5826 5825 5824 5823
5799 5802 5804 5806 5809 5811 5813 5815 5818 5820 5821 5823 5824 5825 5826 5827 5828 5829 5829 5829 5828 5828 5828 5828 5827 5827 5826 5826 5825 5824 5823 5822 5821 5820 5820 5819 5818 5818 5817 5817 5816 5815 5814 5812
5791 5794 5796 5799 5801 5803 5805 5807 5809 5811 5812 5813 5814 5815 5816 5817 5817 5818 5818 5818 5818 5817 5817 5817 5816 5816 5815 5815 5814 5813 5812 5811 5810 5809 5809 5808 5808 5807 5807 5806 5806 5805 5804 5803
5784 5787 5789 5791 5793 5796 5798 5799 5801 5802 5803 5804 5804 5805 5806 5807 5807 5807 5807 5807 5807 5806 5806 5805 5805 5804 5804 5803 5802 5802 5801 5800 5799 5798 5798 5797 5797 5797 5796 5796 5795 5794 5793 5793
5777 5779 5781 5783 5786 5787 5789 5791 5792 5793 5794 5794 5795 5796 5796 5797 5797 5797 5797 5796 5796 5795 5794 5794 5793 5793 5793 5792 5791 5790 5790 5789 5788 5787 5786 5786 5785 5785 5785 5784 5784 5783 5782 5781
5769 5771 5773 5775 5777 5779 5781 5782 5783 5784 5785 5784 5785 5786 5787 5787 5787 5787 5787 5786 5785 5785 5784 5783 5782 5782 5781 5780 5779 5779 5778 5777 5776 5775 5775 5774 5774 5774 5773 5773 5772 5771 5771 5770
5761 5763 5765 5767 5769 5771 5772 5774 5775 5776 5776 5776 5777 5777 5778 5778 5778 5777 5776 5776 5775 5774 5774 5772 5771 5770 5769 5768 5767 5766 5766 5765 5764 5764 5763 5763 5762 5762 5762 5761 5761 5760 5759 5758
5754 5756 5758 5760 5761 5763 5764 5765 5766 5767 5768 5768 5768 5768 5768 5768 5768 5767 5766 5765 5765 5764 5763 5762 5761 5760 5758 5757 5756 5755 5754 5754 5752 5752 5751 5751 5750 5750 5750 5749 5749 5748 5748 5747
5747 5748 5750 5752 5754 5755 5756 5757 5758 5758 5759 5759 5759 5759 5758 5758 5757 5756 5756 5755 5754 5753 5752 5751 5750 5749 5747 5746 5745 5743 5743 5742 5740 5739 5739 5739 5739 5738 5738 5737 5737 5737 5736 5736
5740 5742 5743 5745 5746 5747 5748 5749 5749 5749 5750 5750 5749 5749 5748 5748 5747 5746 5745 5744 5743 5742 5741 5740 5739 5738 5737 5735 5733 5732 5731 5730 5729 5728 5728 5728 5727 5727 5727 5727 5726 5726 5725 5724
5733 5735 5736 5737 5738 5739 5740 5740 5740 5740 5740 5740 5739 5739 5738 5738 5737 5736 5735 5733 5732 5732 5731 5730 5728 5727 5725 5724 5722 5721 5719 5719 5718 5717 5717 5716 5716 5717 5716 5716 5715 5715 5714 5713
5726 5728 5729 5730 5731 5731 5732 5732 5732 5732 5732 5731 5730 5729 5728 5727 5726 5725 5724 5723 5722 5721 5720 5719 5717 5716 5715 5713 5712 5710 5709 5708 5708 5707 5707 5706 5706 5706 5706 5706 5705 5705 5704 5703
5720 5722 5723 5724 5724 5724 5725 5725 5724 5724 5723 5722 5721 5720 5719 5718 5716 5715 5714 5713 5712 5710 5709 5708 5707 5706 5704 5703 5701 5700 5699 5698 5698 5698 5697 5697 5697 5697 5697 5696 5696 5695 5694 5693
5715 5716 5717 5718 5718 5718 5717 5717 5716 5716 5715 5714 5713 5712 5711 5709 5707 5706 5705 5704 5702 5701 5700 5699 5697 5696 5694 5692 5691 5690 5690 5689 5688 5688 5688 5688 5688 5688 5687 5687 5686 5685 5684 5683
5710 5711 5712 5712 5712 5712 5711 5710 5710 5709 5708 5707 5705 5704 5703 5702 5700 5698 5697 5696 5694 5693 5692 5690 5689 5687 5685 5683 5682 5682 5681 5681 5680 5679 5679 5679 5679 5678 5678 5677 5676 5675 5674 5673
5706 5707 5707 5707 5706 5706 5705 5704 5703 5702 5701 5700 5699 5698 5696 5695 5694 5692 5690 5688 5686 5685 5683 5682 5681 5679 5677 5675 5674 5673 5673 5672 5671 5671 5670 5670 5669 5669 5668 5667 5666 5665 5664 5662
5702 5702 5702 5702 5701 5700 5699 5698 5698 5696 5695 5694 5693 5691 5690 5689 5687 5685 5684 5682 5680 5678 5677 5675 5673 5672 5670 5668 5666 5665 5665 5664 5663 5663 5662 5661 5661 5660 5659 5658 5657 5655 5654 5652
5698 5698 5697 5697 5696 5695 5694 5693 5692 5691 5690 5689 5687 5686 5684 5683 5681 5679 5677 5676 5674 5672 5671 5669 5667 5665 5664 5662 5660 5659 5658 5657 5657 5655 5654 5654 5652 5651 5650 5649 5647 5646 5644 5642
5694 5694 5693 5693 5692 5690 5689 5688 5687 5686 5685 5683 5682 5681 5679 5677 5675 5673 5672 5670 5668 5667 5665 5663 5661 5659 5658 5656 5655 5653 5652 5651 5649 5648 5647 5646 5644 5643 5642 5640 5638 5636 5634 5632